Location: Helds Island Access
(38.5526°N, 91.5997°W)
Time: 15:39:32
(UTC-05:00)

Daily predictions for brighter satellites

Satellite Brightness Start Highest point End
(mag) Time Altitude Azimuth Time Altitude Azimuth Time Altitude Azimuth
NOSS 3-2 (C) 4.2 20:32:34 10° NW 20:40:13 87° WSW 20:48:27 10° SSE
YAOGAN 6 4.3 20:43:06 10° ESE 20:45:24 17° ENE 20:47:42 10° NNE
Cosmos 2369 Rocket 2.7 20:40:01 10° NNW 20:45:36 62° WSW 20:51:11 10° S
ERS-1 Rocket 4.5 20:42:41 10° ESE 20:46:21 21° ENE 20:50:01 10° NNE
Resurs 1-3 3.8 20:43:25 10° S 20:47:48 78° WSW 20:52:12 10° NNW
Cosmos 1818 3.6 20:43:15 10° SSW 20:48:35 62° ESE 20:53:59 10° NE
RESURS DK-1 2.6 20:46:09 10° SSW 20:50:15 77° WNW 20:54:25 10° NNE
Cosmos 1544 Rocket 3.7 20:46:01 10° N 20:50:18 58° E 20:54:33 10° SSE
Cosmos 405 Rocket 3.9 20:47:55 10° SE 20:50:53 23° E 20:53:55 10° NE
Okean 1 3.2 20:49:23 10° S 20:53:20 76° E 20:57:18 10° N
NOSS 2-2 (D) 3.7 20:50:07 10° S 20:53:52 43° ESE 20:58:01 10° NE
Resurs 01 Rocket 2.3 20:49:49 10° S 20:54:10 57° W 20:58:33 10° NNW
Cosmos 1975 2.9 20:54:13 10° N 20:58:16 63° E 21:02:18 10° SSE
Cosmos 773 Rocket 3.9 20:54:14 10° S 20:59:21 70° ESE 21:04:28 10° NNE
Cosmos 1943 Rocket 2.2 20:55:04 10° NNW 21:00:42 87° WSW 21:06:15 10° SSE
CENTAUR R/B 3.5 20:53:36 10° NNW 21:01:20 54° NE 21:09:18 11° SE
USA 81 4.2 20:57:36 10° SSE 21:02:43 56° E 21:07:53 10° NNE
Cosmos 1500 3.1 21:00:36 10° N 21:04:23 89° E 21:08:08 10° S
PSLV R/B 3.8 21:03:36 10° W 21:06:40 53° N 21:09:44 10° ENE
Cosmos 292 Rocket 4.1 21:05:35 10° SSW 21:10:24 72° WNW 21:15:14 10° NNE
Helios 1B rocket 2.4 21:07:40 10° NNE 21:11:49 84° ESE 21:15:57 10° SSW
Cosmos 1939 Rocket 2.8 21:08:30 10° SSE 21:12:21 68° ENE 21:16:12 10° N
NOSS 2-2 (C) 3.3 21:08:37 10° SSW 21:12:35 73° ESE 21:17:00 10° NE
COSMOS 2406 3.4 21:09:19 10° S 21:14:53 53° ESE 21:20:25 10° NNE
Cosmos 1455 Rocket 3.1 21:11:17 10° N 21:15:40 85° W 21:20:00 10° S
COSMOS 2455 2.9 21:10:27 10° NNW 21:16:29 82° WSW 21:22:27 10° SSE
SL-27 R/B 3.7 21:14:28 12° SSE 21:17:01 24° E 21:20:00 10° NE
ARGOS 4.5 21:13:33 12° ESE 21:17:21 24° ENE 21:21:36 10° NNE
Cosmos 1680 Rocket 3.6 21:17:07 10° S 21:22:10 52° ESE 21:27:13 10° NNE
SPOT 5 4.1 21:23:04 14° ESE 21:25:25 22° ENE 21:28:43 10° NNE
Cosmos 1346 3.0 21:23:25 14° S 21:25:34 48° E 21:28:16 10° NNE
Cosmos 1743 2.7 21:25:35 10° N 21:29:29 72° E 21:32:38 15° SSE
Cosmos 405 4.2 21:30:39 10° NNE 21:33:42 26° ENE 21:34:56 21° ESE
Envisat 3.6 21:30:31 10° S 21:35:28 55° W 21:40:29 10° NNW
ASTRO E2 3.8 21:33:19 10° WSW 21:36:46 28° S 21:38:12 22° SSE
Terra 4.0 21:37:53 10° ENE 21:39:06 11° ENE 21:40:20 10° NE
ASTEX 1 3.4 21:36:30 15° SSE 21:40:28 66° E 21:45:20 10° N
MetOp-B 4.4 21:40:01 20° SE 21:43:33 52° ENE 21:48:45 10° N
Tiangong 2 1.0 21:40:26 10° SW 21:43:34 61° SSE 21:45:36 20° ENE
CRYOSAT 2 4.3 21:42:57 18° SSE 21:46:32 68° E 21:51:21 10° N
Cosmos 2327 Rocket 4.5 21:41:44 10° N 21:47:57 83° E 21:53:14 15° S
Cosmos 1437 Rocket 4.0 21:45:23 10° NNE 21:48:35 25° ENE 21:49:25 23° E
Aureole 3 Rocket 3.9 21:41:50 10° S 21:48:56 82° W 21:53:55 10° N
Okean 1-7 Rocket 3.7 21:46:16 19° SSE 21:49:19 58° E 21:53:43 10° NNE
Okean 2 4.0 21:50:04 29° SE 21:51:26 37° E 21:55:14 10° NNE
Cosmos 1238 Rocket 4.1 21:46:28 10° S 21:53:06 74° E 21:59:44 10° N
Aureole 1 Rocket 2.3 21:51:19 10° SSW 21:54:51 83° WNW 21:57:55 10° NNE
ISS -4.0 21:52:44 10° SW 21:56:00 68° SE 21:59:17 10° NE
Meteor 2-9 Rocket 4.1 21:50:47 10° N 21:56:15 73° E 21:59:47 23° SSE
Cosmos 1666 2.8 21:56:11 10° NNW 21:59:55 70° W 22:01:55 26° S
Meteor 2-4 Rocket 3.8 21:56:00 10° S 22:01:35 83° W 22:07:23 10° N
Cosmos 1892 Rocket 4.4 22:01:37 30° ESE 22:02:25 32° E 22:06:23 10° NNE
DNEPR-1 R/B 3.5 21:58:26 10° NNW 22:02:42 77° ENE 22:04:38 34° SE
Cosmos 1371 Rocket 4.4 22:00:45 10° N 22:05:56 50° ENE 22:08:06 31° SE
OAO 2 Rocket 3.3 22:03:04 10° WSW 22:07:56 57° S 22:10:00 32° ESE
Cosmos 1833 Rocket 4.1 22:11:23 20° E 22:11:23 20° E 22:14:54 10° NE
Cosmos 921 Rocket 4.3 22:08:12 10° N 22:12:00 26° ENE 22:12:53 24° E
USA 245 2.7 22:16:11 57° NNE 22:16:11 57° NNE 22:18:18 10° N
Cosmos 2181 Rocket 4.3 22:13:07 29° SSE 22:16:07 51° E 22:22:11 10° NNE
Cosmos 1606 Rocket 3.6 22:13:40 10° N 22:17:56 56° E 22:18:50 46° SE
YAOGAN 11 4.0 22:18:33 38° S 22:20:09 80° WSW 22:24:29 10° NNW
SL-24 DEB 4.2 22:21:37 44° SE 22:22:56 66° E 22:27:31 10° N
ERS-1 Rocket 3.9 22:21:29 19° SSW 22:24:47 43° W 22:29:35 10° NNW
Cosmos 1515 3.5 22:28:01 66° ESE 22:28:08 67° E 22:31:55 10° NNE
Cosmos 1726 Rocket 3.5 22:24:35 10° N 22:28:53 62° E 22:29:29 55° ESE
GENESIS II 4.3 22:25:38 10° NW 22:29:33 65° WSW 22:30:03 57° SSW
USA 267 3.8 22:28:27 10° ENE 22:34:03 34° ESE 22:34:03 34° ESE
H-2A R/B 1.9 22:33:29 48° SSE 22:34:49 75° ENE 22:39:49 10° N
Cosmos 2058 Rocket 3.2 22:31:10 10° N 22:35:30 53° E 22:35:51 52° E
CARTOSAT-1 4.3 22:36:38 37° E 22:36:51 38° ENE 22:40:51 10° N
Intercosmos 24 4.4 22:33:16 10° NNW 22:37:02 47° W 22:37:49 39° SW
Cosmos 1295 Rocket 4.5 22:31:50 10° N 22:38:00 70° E 22:40:10 42° SSE
Cosmos 1025 Rocket 4.1 22:35:25 19° SW 22:38:07 42° W 22:42:10 10° N
MOS 1-B Rocket 4.5 22:36:34 25° SSW 22:39:44 53° W 22:45:46 10° NNW
Cosmos 1980 Rocket 4.2 22:36:52 10° NNE 22:40:15 16° NE 22:42:26 13° ENE
Meteor 1-15 Rocket 4.4 22:36:02 10° NNW 22:41:35 65° W 22:43:57 34° SSW
PSLV R/B 4.2 22:40:47 10° WNW 22:43:04 43° WNW 22:43:04 43° WNW
DMSP B5D2-2 4.0 22:41:06 10° NNE 22:46:24 71° ESE 22:47:34 53° SSE
Cosmos 962 Rocket 4.5 22:41:19 10° N 22:47:35 81° W 22:50:02 39° S
Cosmos 1624 Rocket 4.0 22:44:47 10° NNW 22:50:04 79° WSW 22:51:17 54° S
CENTAUR R/B 4.1 22:44:41 10° NW 22:51:58 38° WSW 22:56:31 22° SSW
SL-08 RB Rocket 4.3 22:52:51 40° SW 22:53:51 47° W 22:58:10 10° NNW
ARGOS 4.1 22:55:04 28° SSW 22:57:18 42° W 23:02:26 10° NNW
Landsat 7 3.7 23:00:33 68° SSW 23:01:06 78° WSW 23:05:52 10° NNW
H-2A R/B 2.1 23:01:56 72° ENE 23:01:57 72° ENE 23:06:29 10° N
SPOT 5 4.0 23:02:18 26° WSW 23:03:20 29° W 23:07:08 10° NW
SL-8 Rocket 3.9 22:59:51 10° N 23:06:09 87° E 23:07:42 54° S
Cosmos 2056 Rocket 3.7 23:03:43 10° NNW 23:08:46 56° WSW 23:09:30 51° SW
Cosmos 2278 3.5 23:04:07 10° NNW 23:09:51 87° ENE 23:10:40 67° SSE
Cosmos 2366 rocket 3.9 23:04:04 10° N 23:10:13 68° E 23:11:14 58° SE
Cosmos 2082 Rocket 2.1 23:09:49 66° SSE 23:10:31 76° ESE 23:16:11 10° NNE
Cosmos 1626 Rocket 3.9 23:14:24 55° NE 23:14:24 55° NE 23:17:53 10° NNE
Meteor 2-21 4.3 23:08:14 10° N 23:14:17 74° E 23:15:11 63° SE
Terra 1.7 23:16:05 79° WSW 23:16:09 79° WSW 23:20:56 10° NNW
Meteor 2-21 Rocket 4.4 23:11:08 10° N 23:17:09 62° E 23:17:50 58° ESE
CZ-4B R/B 3.5 23:14:19 10° NNE 23:19:06 66° E 23:19:06 66° E
COSMOS 2487 4.0 23:21:12 37° NNW 23:21:12 37° NNW 23:23:48 10° N
Tiangong 2 4.0 23:17:23 10° W 23:17:53 14° WNW 23:17:53 14° WNW
Spot 4 4.0 23:24:26 63° NE 23:24:26 63° NE 23:28:53 10° N
CZ-2C R/B 4.4 23:23:20 10° NE 23:26:18 20° ENE 23:26:18 20° ENE
Timation 2 Rocket 3.9 23:27:45 63° ESE 23:27:56 63° ESE 23:34:04 10° NNE
Cosmos 2369 3.7 23:22:45 10° NNW 23:28:28 67° WSW 23:28:55 64° SW
Cosmos 1420 Rocket 4.2 23:24:57 10° N 23:30:03 58° ENE 23:30:03 58° ENE
Cosmos 1953 4.5 23:29:02 10° NNE 23:30:57 19° NE 23:30:57 19° NE
Cosmos 1048 Rocket 4.5 23:33:31 48° ENE 23:33:31 48° ENE 23:37:31 10° NNE
IGS 5A 4.4 23:33:12 44° WNW 23:33:12 44° WNW 23:36:34 10° NNW
ISS -0.9 23:30:23 10° WNW 23:32:47 18° NNW 23:35:10 10° NNE
SL-08 R/B 4.4 23:31:07 10° N 23:37:14 74° W 23:38:03 64° SSW
Cosmos 1697 Rocket 2.6 23:32:26 10° NNW 23:38:04 73° ENE 23:38:08 73° ENE
SL-16 R/B 4.2 23:34:38 10° NNE 23:38:11 17° NE 23:39:58 15° ENE
Cosmos 1452 Rocket 3.5 23:35:50 10° NNW 23:40:54 72° W 23:40:54 72° W
Cosmos 1271 Rocket 4.3 23:38:34 10° N 23:40:49 31° NNE 23:40:49 31° NNE
Cosmos 2218 Rocket 4.4 23:40:27 10° NNW 23:46:24 53° W 23:47:26 48° SW
Cosmos 1602 Rocket 4.5 23:47:45 44° NW 23:47:45 44° NW 23:51:20 10° N
Cosmos 1833 Rocket 3.3 23:53:01 42° WSW 23:54:21 50° WNW 23:59:50 10° NNE
